| time (UTC) | temp F | wind direction | speed MPH | gust MPH | rain 1hr in | rain 24hr in | rain mn in | humidity % | barometer mb |
| 20260506211204 | 56 | 271 | 9.0 | 14.0 | 0.00 | 0.00 | 0.00 | 82 | 1020.9 |
| 20260506210704 | 56 | 279 | 9.0 | 12.0 | 0.00 | 0.00 | 0.00 | 82 | 1020.8 |
| 20260506205704 | 57 | 273 | 7.0 | 13.0 | 0.00 | 0.00 | 0.00 | 81 | 1020.9 |
| 20260506205205 | 57 | 268 | 7.0 | 12.0 | 0.00 | 0.00 | 0.00 | 81 | 1020.9 |
| 20260506204704 | 57 | 261 | 6.0 | 12.0 | 0.00 | 0.00 | 0.00 | 82 | 1020.8 |
| 20260506204205 | 57 | 282 | 5.0 | 12.0 | 0.00 | 0.00 | 0.00 | 82 | 1020.9 |
| 20260506203705 | 57 | 253 | 8.0 | 12.0 | 0.00 | 0.00 | 0.00 | 81 | 1020.9 |
| 20260506203203 | 57 | 264 | 6.0 | 10.0 | 0.00 | 0.00 | 0.00 | 81 | 1020.9 |
| 20260506202704 | 57 | 282 | 4.0 | 12.0 | 0.00 | 0.00 | 0.00 | 82 | 1020.8 |
| 20260506202204 | 57 | 277 | 8.0 | 12.0 | 0.00 | 0.00 | 0.00 | 82 | 1020.8 |
| 20260506201704 | 57 | 257 | 5.0 | 9.0 | 0.00 | 0.00 | 0.00 | 82 | 1020.8 |
| 20260506200204 | 56 | 268 | 6.0 | 10.0 | 0.00 | 0.00 | 0.00 | 83 | 1020.8 |
| 20260506195704 | 56 | 274 | 7.0 | 12.0 | 0.00 | 0.00 | 0.00 | 84 | 1020.8 |
| 20260506195205 | 56 | 236 | 6.0 | 10.0 | 0.00 | 0.00 | 0.00 | 85 | 1020.8 |
| 20260506193705 | 55 | 264 | 8.0 | 14.0 | 0.00 | 0.00 | 0.00 | 86 | 1020.7 |
| 20260506193205 | 54 | 268 | 5.0 | 12.0 | 0.00 | 0.00 | 0.00 | 86 | 1020.8 |
| 20260506192704 | 54 | 286 | 7.0 | 14.0 | 0.00 | 0.00 | 0.00 | 86 | 1020.8 |
| 20260506192205 | 54 | 276 | 8.0 | 13.0 | 0.00 | 0.00 | 0.00 | 86 | 1020.8 |
| 20260506191204 | 54 | 245 | 6.0 | 12.0 | 0.00 | 0.00 | 0.00 | 86 | 1020.7 |
| 20260506190705 | 54 | 256 | 6.0 | 12.0 | 0.00 | 0.00 | 0.00 | 86 | 1020.7 |
| 20260506190205 | 54 | 265 | 6.0 | 10.0 | 0.00 | 0.00 | 0.00 | 87 | 1020.6 |
| 20260506185704 | 54 | 252 | 7.0 | 12.0 | 0.00 | 0.00 | 0.00 | 87 | 1020.6 |
| 20260506185204 | 54 | 255 | 9.0 | 13.0 | 0.00 | 0.00 | 0.00 | 86 | 1020.6 |
| 20260506184704 | 54 | 269 | 9.0 | 12.0 | 0.00 | 0.00 | 0.00 | 86 | 1020.6 |
| 20260506184204 | 54 | 252 | 6.0 | 10.0 | 0.00 | 0.00 | 0.00 | 86 | 1020.6 |
| 20260506183705 | 54 | 266 | 6.0 | 10.0 | 0.00 | 0.00 | 0.00 | 86 | 1020.5 |
| 20260506183205 | 54 | 263 | 8.0 | 12.0 | 0.00 | 0.00 | 0.00 | 86 | 1020.5 |
| 20260506182704 | 54 | 253 | 9.0 | 13.0 | 0.00 | 0.00 | 0.00 | 85 | 1020.5 |
| 20260506182204 | 54 | 264 | 5.0 | 12.0 | 0.00 | 0.00 | 0.00 | 87 | 1020.4 |
| 20260506181704 | 54 | 269 | 9.0 | 12.0 | 0.00 | 0.00 | 0.00 | 85 | 1020.4 |
| 20260506181205 | 54 | 263 | 5.0 | 12.0 | 0.00 | 0.00 | 0.00 | 86 | 1020.4 |
| 20260506180704 | 54 | 257 | 5.0 | 9.0 | 0.00 | 0.00 | 0.00 | 86 | 1020.5 |
| 20260506180204 | 54 | 253 | 6.0 | 12.0 | 0.00 | 0.00 | 0.00 | 87 | 1020.5 |
| 20260506175703 | 54 | 269 | 6.0 | 9.0 | 0.00 | 0.00 | 0.00 | 86 | 1020.4 |
| 20260506175204 | 54 | 262 | 7.0 | 12.0 | 0.00 | 0.00 | 0.00 | 86 | 1020.4 |
| 20260506174704 | 54 | 257 | 9.0 | 13.0 | 0.00 | 0.00 | 0.00 | 86 | 1020.4 |
| 20260506174203 | 54 | 270 | 6.0 | 12.0 | 0.00 | 0.00 | 0.00 | 86 | 1020.3 |
| 20260506173205 | 54 | 263 | 6.0 | 12.0 | 0.00 | 0.00 | 0.00 | 87 | 1020.3 |
| 20260506172704 | 54 | 273 | 6.0 | 12.0 | 0.00 | 0.00 | 0.00 | 86 | 1020.2 |
| 20260506172205 | 54 | 253 | 7.0 | 12.0 | 0.00 | 0.00 | 0.00 | 86 | 1020.2 |
| 20260506171703 | 54 | 264 | 9.0 | 12.0 | 0.00 | 0.00 | 0.00 | 86 | 1020.2 |
| 20260506171204 | 54 | 258 | 6.0 | 9.0 | 0.00 | 0.00 | 0.00 | 86 | 1020.3 |
| 20260506170704 | 54 | 289 | 9.0 | 12.0 | 0.00 | 0.00 | 0.00 | 86 | 1020.2 |
| 20260506165704 | 54 | 254 | 4.0 | 9.0 | 0.00 | 0.00 | 0.00 | 86 | 1020.1 |
| 20260506165205 | 54 | 260 | 5.0 | 12.0 | 0.00 | 0.00 | 0.00 | 86 | 1019.9 |
| 20260506164704 | 54 | 266 | 5.0 | 8.0 | 0.00 | 0.00 | 0.00 | 87 | 1019.9 |
| 20260506164204 | 53 | 293 | 4.0 | 8.0 | 0.00 | 0.00 | 0.00 | 87 | 1019.8 |
| 20260506163706 | 53 | 273 | 7.0 | 9.0 | 0.00 | 0.00 | 0.00 | 86 | 1019.9 |
| 20260506163204 | 54 | 278 | 5.0 | 10.0 | 0.00 | 0.00 | 0.00 | 88 | 1020.0 |
| 20260506162205 | 53 | 287 | 5.0 | 8.0 | 0.00 | 0.00 | 0.00 | 88 | 1020.1 |
| 20260506160705 | 53 | 259 | 3.0 | 6.0 | 0.00 | 0.00 | 0.00 | 89 | 1020.0 |
| 20260506155704 | 52 | 262 | 5.0 | 10.0 | 0.00 | 0.00 | 0.00 | 90 | 1020.1 |
| 20260506155204 | 52 | 259 | 6.0 | 10.0 | 0.00 | 0.00 | 0.00 | 90 | 1020.2 |
| 20260506154705 | 52 | 258 | 5.0 | 10.0 | 0.00 | 0.00 | 0.00 | 90 | 1020.1 |
| 20260506154204 | 52 | 265 | 5.0 | 10.0 | 0.00 | 0.00 | 0.00 | 90 | 1020.2 |
| 20260506153704 | 52 | 261 | 6.0 | 12.0 | 0.00 | 0.00 | 0.00 | 90 | 1020.2 |
| 20260506152704 | 52 | 266 | 4.0 | 9.0 | 0.00 | 0.00 | 0.00 | 90 | 1020.1 |
| 20260506151704 | 52 | 289 | 4.0 | 8.0 | 0.00 | 0.00 | 0.00 | 90 | 1020.0 |
| 20260506151204 | 52 | 278 | 3.0 | 8.0 | 0.00 | 0.00 | 0.00 | 90 | 1019.9 |
| 20260506150705 | 52 | 253 | 4.0 | 8.0 | 0.00 | 0.00 | 0.00 | 90 | 1019.7 |
| 20260506145704 | 52 | 257 | 3.0 | 8.0 | 0.00 | 0.00 | 0.00 | 90 | 1019.7 |
| 20260506145205 | 52 | 270 | 3.0 | 9.0 | 0.00 | 0.00 | 0.00 | 91 | 1019.7 |
| 20260506144704 | 52 | 264 | 2.0 | 3.0 | 0.00 | 0.00 | 0.00 | 91 | 1019.6 |
| 20260506144204 | 52 | 291 | 0.0 | 2.0 | 0.00 | 0.00 | 0.00 | 91 | 1019.4 |
| 20260506143705 | 52 | 291 | 1.0 | 3.0 | 0.00 | 0.00 | 0.00 | 91 | 1019.4 |
| 20260506143205 | 52 | 268 | 2.0 | 3.0 | 0.00 | 0.00 | 0.00 | 91 | 1019.4 |
| 20260506142704 | 52 | 275 | 2.0 | 5.0 | 0.00 | 0.00 | 0.00 | 91 | 1019.4 |
| 20260506142204 | 52 | 305 | 2.0 | 7.0 | 0.00 | 0.00 | 0.00 | 91 | 1019.4 |
| 20260506141703 | 52 | 256 | 1.0 | 3.0 | 0.00 | 0.00 | 0.00 | 91 | 1019.5 |
| 20260506140704 | 52 | 284 | 5.0 | 8.0 | 0.00 | 0.00 | 0.00 | 91 | 1019.5 |
| 20260506135703 | 52 | 258 | 2.0 | 6.0 | 0.00 | 0.00 | 0.00 | 91 | 1019.2 |
| 20260506134205 | 52 | 286 | 1.0 | 3.0 | 0.00 | 0.00 | 0.00 | 91 | 1019.1 |
| 20260506133205 | 52 | 223 | 0.0 | 0.0 | 0.00 | 0.00 | 0.00 | 91 | 1019.1 |
| 20260506132704 | 52 | 275 | 0.0 | 3.0 | 0.00 | 0.00 | 0.00 | 91 | 1019.1 |
| 20260506132204 | 52 | 279 | 1.0 | 2.0 | 0.00 | 0.00 | 0.00 | 91 | 1019.0 |
| 20260506131704 | 52 | 259 | 1.0 | 2.0 | 0.00 | 0.00 | 0.00 | 91 | 1019.0 |
| 20260506130204 | 52 | 174 | 0.0 | 2.0 | 0.00 | 0.00 | 0.00 | 91 | 1018.9 |
| 20260506125704 | 52 | 242 | 1.0 | 3.0 | 0.00 | 0.00 | 0.00 | 91 | 1018.9 |
| 20260506125204 | 52 | 238 | 1.0 | 6.0 | 0.00 | 0.00 | 0.00 | 91 | 1018.9 |
| 20260506124704 | 52 | 269 | 2.0 | 6.0 | 0.00 | 0.00 | 0.00 | 91 | 1018.8 |
| 20260506124205 | 52 | 266 | 2.0 | 6.0 | 0.00 | 0.00 | 0.00 | 91 | 1018.9 |
| 20260506123705 | 52 | 264 | 3.0 | 7.0 | 0.00 | 0.00 | 0.00 | 91 | 1018.9 |
| 20260506123204 | 52 | 244 | 3.0 | 7.0 | 0.00 | 0.00 | 0.00 | 91 | 1018.9 |
| 20260506122704 | 52 | 263 | 2.0 | 5.0 | 0.00 | 0.00 | 0.00 | 91 | 1018.9 |
| 20260506122205 | 52 | 242 | 5.0 | 9.0 | 0.00 | 0.00 | 0.00 | 91 | 1018.9 |
| 20260506121704 | 52 | 255 | 5.0 | 9.0 | 0.00 | 0.00 | 0.00 | 91 | 1018.8 |
| 20260506121204 | 52 | 260 | 2.0 | 7.0 | 0.00 | 0.00 | 0.00 | 91 | 1018.9 |
| 20260506120705 | 52 | 255 | 5.0 | 8.0 | 0.00 | 0.00 | 0.00 | 91 | 1018.9 |
| 20260506120205 | 52 | 267 | 4.0 | 7.0 | 0.00 | 0.00 | 0.00 | 91 | 1018.8 |
| 20260506115704 | 52 | 273 | 5.0 | 8.0 | 0.00 | 0.00 | 0.00 | 91 | 1018.8 |
| 20260506115205 | 52 | 241 | 3.0 | 6.0 | 0.00 | 0.00 | 0.00 | 91 | 1018.8 |
| 20260506114704 | 52 | 269 | 3.0 | 6.0 | 0.00 | 0.00 | 0.00 | 91 | 1018.7 |
| 20260506113205 | 52 | 264 | 3.0 | 8.0 | 0.00 | 0.00 | 0.00 | 91 | 1018.4 |
| 20260506112704 | 52 | 287 | 3.0 | 7.0 | 0.00 | 0.00 | 0.00 | 91 | 1018.4 |
| 20260506112204 | 52 | 275 | 3.0 | 9.0 | 0.00 | 0.00 | 0.00 | 91 | 1018.4 |
| 20260506110704 | 52 | 282 | 4.0 | 9.0 | 0.00 | 0.00 | 0.00 | 91 | 1018.2 |
| 20260506105705 | 52 | 267 | 6.0 | 10.0 | 0.00 | 0.00 | 0.00 | 91 | 1018.2 |
| 20260506105205 | 52 | 285 | 5.0 | 9.0 | 0.00 | 0.00 | 0.00 | 91 | 1018.2 |
| 20260506104203 | 52 | 271 | 3.0 | 7.0 | 0.00 | 0.00 | 0.00 | 91 | 1018.1 |
| 20260506103704 | 52 | 278 | 4.0 | 7.0 | 0.00 | 0.00 | 0.00 | 91 | 1017.9 |
| 20260506103204 | 52 | 276 | 3.0 | 6.0 | 0.00 | 0.00 | 0.00 | 91 | 1017.9 |
| 20260506102204 | 52 | 301 | 2.0 | 3.0 | 0.00 | 0.00 | 0.00 | 91 | 1017.8 |
| 20260506101703 | 52 | 276 | 2.0 | 3.0 | 0.00 | 0.00 | 0.00 | 91 | 1017.8 |
| 20260506101204 | 52 | 274 | 2.0 | 3.0 | 0.00 | 0.00 | 0.00 | 91 | 1017.7 |
| 20260506100706 | 52 | 291 | 3.0 | 3.0 | 0.00 | 0.00 | 0.00 | 91 | 1017.6 |
| 20260506095204 | 52 | 255 | 2.0 | 3.0 | 0.00 | 0.00 | 0.00 | 91 | 1017.6 |
| 20260506094704 | 52 | 266 | 2.0 | 6.0 | 0.00 | 0.00 | 0.00 | 91 | 1017.6 |
| 20260506093705 | 52 | 285 | 1.0 | 7.0 | 0.00 | 0.00 | 0.00 | 91 | 1017.7 |
| 20260506092704 | 52 | 264 | 2.0 | 5.0 | 0.00 | 0.00 | 0.00 | 91 | 1017.7 |
| 20260506092204 | 52 | 257 | 3.0 | 5.0 | 0.00 | 0.00 | 0.00 | 92 | 1017.6 |
| 20260506091705 | 52 | 269 | 2.0 | 3.0 | 0.00 | 0.00 | 0.00 | 92 | 1017.6 |
| 20260506091204 | 52 | 272 | 2.0 | 3.0 | 0.00 | 0.00 | 0.00 | 92 | 1017.6 |
| 20260506090705 | 52 | 289 | 4.0 | 7.0 | 0.00 | 0.00 | 0.00 | 92 | 1017.6 |
| 20260506090204 | 52 | 261 | 2.0 | 8.0 | 0.00 | 0.00 | 0.00 | 92 | 1017.6 |
| 20260506085704 | 52 | 284 | 3.0 | 9.0 | 0.00 | 0.00 | 0.00 | 92 | 1017.6 |
| 20260506084704 | 52 | 274 | 4.0 | 8.0 | 0.00 | 0.00 | 0.00 | 92 | 1017.6 |
| 20260506084204 | 52 | 273 | 4.0 | 7.0 | 0.00 | 0.00 | 0.00 | 92 | 1017.6 |
| 20260506083705 | 52 | 271 | 5.0 | 8.0 | 0.00 | 0.00 | 0.00 | 93 | 1017.6 |
| 20260506082205 | 52 | 281 | 3.0 | 7.0 | 0.00 | 0.00 | 0.00 | 94 | 1017.5 |
| 20260506081705 | 52 | 272 | 5.0 | 9.0 | 0.00 | 0.00 | 0.00 | 94 | 1017.5 |
| 20260506081204 | 52 | 264 | 4.0 | 8.0 | 0.00 | 0.00 | 0.00 | 95 | 1017.5 |
| 20260506080704 | 52 | 273 | 5.0 | 9.0 | 0.00 | 0.00 | 0.00 | 95 | 1017.4 |
| 20260506073204 | 47 | 201 | 0.0 | 0.0 | 0.00 | 0.00 | 0.00 | 95 | 1017.0 |
| 20260506072704 | 47 | 201 | 0.0 | 0.0 | 0.00 | 0.00 | 0.00 | 95 | 1017.0 |
| 20260506071704 | 46 | 201 | 0.0 | 0.0 | 0.00 | 0.00 | 0.00 | 94 | 1016.9 |
| 20260506071204 | 46 | 201 | 0.0 | 0.0 | 0.00 | 0.00 | 0.00 | 93 | 1016.9 |
| 20260506070206 | 47 | 201 | 0.0 | 0.0 | 0.00 | 0.00 | 0.00 | 94 | 1016.8 |
| 20260506062205 | 47 | 215 | 1.0 | 2.0 | 0.00 | 0.00 | 0.00 | 92 | 1016.6 |
| 20260506061704 | 48 | 209 | 1.0 | 3.0 | 0.00 | 0.00 | 0.00 | 92 | 1016.6 |
| 20260506061203 | 48 | 209 | 1.0 | 2.0 | 0.00 | 0.00 | 0.00 | 91 | 1016.5 |
| 20260506060705 | 49 | 197 | 1.0 | 3.0 | 0.00 | 0.00 | 0.00 | 92 | 1016.5 |
| 20260506060204 | 50 | 197 | 1.0 | 3.0 | 0.00 | 0.00 | 0.00 | 91 | 1016.5 |
| 20260506051205 | 52 | 268 | 6.0 | 10.0 | 0.00 | 0.00 | 0.00 | 91 | 1016.5 |
| 20260506050705 | 52 | 259 | 6.0 | 10.0 | 0.00 | 0.00 | 0.00 | 91 | 1016.5 |
| 20260506050204 | 52 | 263 | 7.0 | 12.0 | 0.00 | 0.00 | 0.00 | 91 | 1016.5 |
| 20260506044704 | 52 | 265 | 7.0 | 12.0 | 0.00 | 0.00 | 0.00 | 91 | 1016.3 |
| 20260506044204 | 52 | 271 | 9.0 | 12.0 | 0.00 | 0.00 | 0.00 | 91 | 1016.4 |
| 20260506043706 | 52 | 267 | 7.0 | 10.0 | 0.00 | 0.00 | 0.00 | 91 | 1016.3 |
| 20260506043203 | 52 | 259 | 6.0 | 12.0 | 0.00 | 0.00 | 0.00 | 91 | 1016.2 |
| 20260506042704 | 52 | 267 | 6.0 | 10.0 | 0.00 | 0.00 | 0.00 | 91 | 1016.1 |
| 20260506042204 | 52 | 256 | 7.0 | 12.0 | 0.00 | 0.00 | 0.00 | 91 | 1016.0 |
| 20260506041704 | 52 | 266 | 6.0 | 12.0 | 0.00 | 0.00 | 0.00 | 91 | 1016.0 |
| 20260506041203 | 52 | 271 | 6.0 | 12.0 | 0.00 | 0.00 | 0.00 | 91 | 1015.9 |
| 20260506040704 | 52 | 269 | 6.0 | 14.0 | 0.00 | 0.00 | 0.00 | 90 | 1015.7 |
| 20260506040205 | 53 | 273 | 8.0 | 12.0 | 0.00 | 0.00 | 0.00 | 90 | 1015.7 |
| 20260506035205 | 53 | 273 | 7.0 | 10.0 | 0.00 | 0.00 | 0.00 | 90 | 1015.5 |
| 20260506034704 | 53 | 266 | 7.0 | 12.0 | 0.00 | 0.00 | 0.00 | 90 | 1015.5 |
| 20260506034204 | 53 | 281 | 6.0 | 9.0 | 0.00 | 0.00 | 0.00 | 90 | 1015.4 |
| 20260506033705 | 53 | 262 | 6.0 | 10.0 | 0.00 | 0.00 | 0.00 | 89 | 1015.4 |
| 20260506033204 | 53 | 282 | 6.0 | 12.0 | 0.00 | 0.00 | 0.00 | 89 | 1015.3 |
| 20260506032704 | 53 | 280 | 6.0 | 10.0 | 0.00 | 0.00 | 0.00 | 89 | 1015.3 |
| 20260506032205 | 53 | 280 | 7.0 | 13.0 | 0.00 | 0.00 | 0.00 | 88 | 1015.3 |
| 20260506031705 | 53 | 268 | 8.0 | 13.0 | 0.00 | 0.00 | 0.00 | 88 | 1015.3 |
| 20260506030204 | 54 | 269 | 6.0 | 12.0 | 0.00 | 0.00 | 0.00 | 87 | 1015.3 |
| 20260506025704 | 54 | 266 | 6.0 | 12.0 | 0.00 | 0.00 | 0.00 | 86 | 1015.3 |
| 20260506025205 | 55 | 268 | 7.0 | 12.0 | 0.00 | 0.00 | 0.00 | 86 | 1015.3 |
| 20260506024706 | 55 | 270 | 7.0 | 13.0 | 0.00 | 0.00 | 0.00 | 85 | 1015.3 |
| 20260506024205 | 55 | 268 | 6.0 | 13.0 | 0.00 | 0.00 | 0.00 | 85 | 1015.3 |
| 20260506023705 | 56 | 264 | 9.0 | 15.0 | 0.00 | 0.00 | 0.00 | 85 | 1015.4 |
| 20260506023204 | 56 | 272 | 7.0 | 12.0 | 0.00 | 0.00 | 0.00 | 84 | 1015.3 |
| 20260506022706 | 56 | 280 | 7.0 | 14.0 | 0.00 | 0.00 | 0.00 | 84 | 1015.3 |
| 20260506022205 | 56 | 260 | 9.0 | 15.0 | 0.00 | 0.00 | 0.00 | 83 | 1015.3 |
| 20260506021704 | 56 | 270 | 7.0 | 13.0 | 0.00 | 0.00 | 0.00 | 83 | 1015.3 |
| 20260506021204 | 57 | 266 | 8.0 | 12.0 | 0.00 | 0.00 | 0.00 | 83 | 1015.3 |
| 20260506020705 | 57 | 264 | 6.0 | 12.0 | 0.00 | 0.00 | 0.00 | 83 | 1015.3 |
| 20260506020204 | 57 | 270 | 6.0 | 12.0 | 0.00 | 0.00 | 0.00 | 83 | 1015.3 |
| 20260506015705 | 57 | 283 | 9.0 | 13.0 | 0.00 | 0.00 | 0.00 | 82 | 1015.3 |
| 20260506014705 | 58 | 275 | 8.0 | 12.0 | 0.00 | 0.00 | 0.00 | 82 | 1015.2 |
| 20260506014204 | 58 | 261 | 8.0 | 12.0 | 0.00 | 0.00 | 0.00 | 82 | 1015.3 |
| 20260506013704 | 58 | 265 | 8.0 | 14.0 | 0.00 | 0.00 | 0.00 | 82 | 1015.3 |
| 20260506013204 | 58 | 268 | 8.0 | 13.0 | 0.00 | 0.00 | 0.00 | 81 | 1015.3 |
| 20260506012704 | 58 | 281 | 8.0 | 14.0 | 0.00 | 0.00 | 0.00 | 82 | 1015.4 |
| 20260506012205 | 58 | 274 | 9.0 | 14.0 | 0.00 | 0.00 | 0.00 | 81 | 1015.4 |
| 20260506011703 | 58 | 275 | 8.0 | 12.0 | 0.00 | 0.00 | 0.00 | 81 | 1015.3 |
| 20260506010705 | 59 | 270 | 9.0 | 13.0 | 0.00 | 0.00 | 0.00 | 80 | 1015.3 |
| 20260506010204 | 59 | 262 | 7.0 | 12.0 | 0.00 | 0.00 | 0.00 | 81 | 1015.3 |
| 20260506005705 | 58 | 262 | 10.0 | 16.0 | 0.00 | 0.00 | 0.00 | 80 | 1015.4 |
| 20260506005205 | 59 | 257 | 10.0 | 16.0 | 0.00 | 0.00 | 0.00 | 80 | 1015.5 |
| 20260506004704 | 59 | 268 | 6.0 | 12.0 | 0.00 | 0.00 | 0.00 | 81 | 1015.5 |
| 20260506004204 | 59 | 265 | 10.0 | 16.0 | 0.00 | 0.00 | 0.00 | 80 | 1015.5 |
| 20260506003704 | 59 | 269 | 9.0 | 16.0 | 0.00 | 0.00 | 0.00 | 81 | 1015.5 |
| 20260506003204 | 59 | 286 | 9.0 | 14.0 | 0.00 | 0.00 | 0.00 | 80 | 1015.5 |
| 20260506002205 | 59 | 252 | 9.0 | 14.0 | 0.00 | 0.00 | 0.00 | 81 | 1015.5 |
| 20260506001704 | 59 | 270 | 10.0 | 15.0 | 0.00 | 0.00 | 0.00 | 80 | 1015.5 |
| 20260506001204 | 59 | 245 | 12.0 | 16.0 | 0.00 | 0.00 | 0.00 | 80 | 1015.5 |
| 20260506000704 | 59 | 260 | 9.0 | 15.0 | 0.00 | 0.00 | 0.00 | 79 | 1015.5 |
| 20260506000205 | 60 | 279 | 7.0 | 12.0 | 0.00 | 0.00 | 0.00 | 81 | 1015.6 |
| 20260505235703 | 60 | 259 | 11.0 | 20.0 | 0.00 | 0.00 | 0.00 | 78 | 1015.7 |
| 20260505234704 | 60 | 288 | 7.0 | 13.0 | 0.00 | 0.00 | 0.00 | 80 | 1015.8 |
| 20260505234204 | 60 | 260 | 9.0 | 14.0 | 0.00 | 0.00 | 0.00 | 79 | 1015.8 |
| 20260505233704 | 60 | 257 | 7.0 | 12.0 | 0.00 | 0.00 | 0.00 | 80 | 1015.9 |
| 20260505233205 | 60 | 265 | 7.0 | 13.0 | 0.00 | 0.00 | 0.00 | 80 | 1015.9 |
| 20260505232705 | 60 | 251 | 10.0 | 13.0 | 0.00 | 0.00 | 0.00 | 79 | 1015.9 |
| 20260505232205 | 61 | 281 | 6.0 | 12.0 | 0.00 | 0.00 | 0.00 | 79 | 1016.0 |
| 20260505231704 | 61 | 282 | 5.0 | 13.0 | 0.00 | 0.00 | 0.00 | 80 | 1016.0 |
| 20260505230704 | 60 | 268 | 7.0 | 12.0 | 0.00 | 0.00 | 0.00 | 81 | 1015.9 |
| 20260505230204 | 60 | 281 | 9.0 | 14.0 | 0.00 | 0.00 | 0.00 | 80 | 1016.0 |
| 20260505225704 | 60 | 302 | 7.0 | 12.0 | 0.00 | 0.00 | 0.00 | 81 | 1016.0 |
| 20260505225205 | 60 | 283 | 6.0 | 13.0 | 0.00 | 0.00 | 0.00 | 80 | 1016.1 |
| 20260505224704 | 61 | 270 | 7.0 | 12.0 | 0.00 | 0.00 | 0.00 | 81 | 1016.1 |
| 20260505224204 | 60 | 317 | 6.0 | 12.0 | 0.00 | 0.00 | 0.00 | 80 | 1016.2 |
| 20260505223704 | 60 | 296 | 7.0 | 15.0 | 0.00 | 0.00 | 0.00 | 81 | 1016.2 |
| 20260505223203 | 60 | 303 | 7.0 | 12.0 | 0.00 | 0.00 | 0.00 | 80 | 1016.2 |
| 20260505222703 | 61 | 268 | 9.0 | 13.0 | 0.00 | 0.00 | 0.00 | 81 | 1016.2 |
| 20260505222206 | 60 | 292 | 6.0 | 12.0 | 0.00 | 0.00 | 0.00 | 83 | 1016.2 |
| 20260505221705 | 60 | 301 | 6.0 | 12.0 | 0.00 | 0.00 | 0.00 | 83 | 1016.2 |
| 20260505221204 | 60 | 285 | 6.0 | 10.0 | 0.00 | 0.00 | 0.00 | 82 | 1016.3 |
| 20260505220705 | 60 | 279 | 4.0 | 12.0 | 0.00 | 0.00 | 0.00 | 83 | 1016.3 |
| 20260505220204 | 60 | 310 | 6.0 | 12.0 | 0.00 | 0.00 | 0.00 | 83 | 1016.4 |
| 20260505215704 | 60 | 303 | 5.0 | 12.0 | 0.00 | 0.00 | 0.00 | 84 | 1016.4 |
| 20260505215204 | 59 | 291 | 3.0 | 9.0 | 0.00 | 0.00 | 0.00 | 84 | 1016.5 |
| 20260505214703 | 60 | 303 | 6.0 | 10.0 | 0.00 | 0.00 | 0.00 | 83 | 1016.5 |
| 20260505214203 | 60 | 295 | 6.0 | 9.0 | 0.00 | 0.00 | 0.00 | 84 | 1016.6 |
| 20260505213704 | 59 | 286 | 5.0 | 8.0 | 0.00 | 0.00 | 0.00 | 84 | 1016.6 |
| 20260505213204 | 59 | 315 | 6.0 | 10.0 | 0.00 | 0.00 | 0.00 | 84 | 1016.6 |
| 20260505212704 | 59 | 323 | 7.0 | 10.0 | 0.00 | 0.00 | 0.00 | 83 | 1016.7 |
| 20260505212204 | 59 | 282 | 3.0 | 10.0 | 0.00 | 0.00 | 0.00 | 84 | 1016.7 |
| 20260505211704 | 59 | 280 | 5.0 | 9.0 | 0.00 | 0.00 | 0.00 | 84 | 1016.7 |